Location: G�migny
(47.9646°N, 1.6950°E)
Time: 11:14:17
(UTC+00:00)

ASTEX 1 - Pass Details

Date: 23 October 2019
Orbit: 722 x 742 km, 92.7° (Epoch: 20 November)

Event Time Altitude Azimuth Distance (km) Brightness Sun altitude
Rises 18:08:19 0° 3° (N) 3,174 6.7 -13.6°
Reaches altitude 10° 18:10:38 10° 0° (N) 2,250 5.9 -14.0°
Maximum altitude 18:15:33 65° 280° (W) 811 3.9 -14.8°
Drops below altitude 10° 18:20:28 10° 199° (SSW) 2,244 6.2 -15.7°
Sets 18:22:47 0° 196° (SSW) 3,164 6.9 -16.1°
